Location: Choisy
(48.7685°N, 2.4187°E)
Time: 10:30:23
(UTC+00:00)

ATLAS 3B R/B - Pass Details

Date: 06 December 2023
Orbit: 947 x 1247 km, 63.8° (Epoch: 10 February)

Event Time Altitude Azimuth Distance (km) Brightness Sun altitude
Exits shadow 04:11:28 67° 346° (NNW) 1,242 2.8 -31.3°
Drops below altitude 10° 04:18:27 10° 39° (NE) 3,153 5.6 -30.1°
Sets 04:21:19 0° 42° (NE) 4,149 6.3 -29.7°
